DW3733 Luzzi (cosenza) IT current weather conditions

sailwx.info

Wind from 104 at 1 knots gusting 2

Air temperature 8.9° C
Dewpoint 7.0° C

Last reported at 2014-Dec-17 20:53 UTC.
Time now 2014-Dec-17 21:39 UTC

Location: N 39°27' E 016°16'.
View on Google Maps.

See reports from other nearby stations

  
Tides and Currents Weather Stations Pressure Air Temp Water Temp Dewpoint Dewpoint Depression Visibility Wind Speed Wind Dir Waves Ship Positions
date/time (UTC)wind fromknots sea level pressurealtimeterstation pressurevisibilityair tempwater tempwave heightnotes
2014-Dec-17 20:53 104 1 gusting 2 8.9
2014-Dec-17 20:43 225 9.4
2014-Dec-17 20:33 225 0 gusting 1 8.9
2014-Dec-17 20:23 8.3
2014-Dec-17 20:13 090 1 gusting 2 8.9
2014-Dec-17 20:03 270 9.4
2014-Dec-17 19:53 225 9.4
2014-Dec-17 19:43 315 9.4
2014-Dec-17 19:33 257 8.9
2014-Dec-17 19:23 135 0 gusting 4 8.9
2014-Dec-17 19:13 107 1 gusting 2 8.9
2014-Dec-17 19:03 090 1 gusting 2 8.9
2014-Dec-17 18:53 135 0 gusting 1 9.4
2014-Dec-17 18:43 215 9.4
2014-Dec-17 18:33 343 0 gusting 2 9.4
2014-Dec-17 18:23 225 9.4
2014-Dec-17 18:13 225 9.4
2014-Dec-17 18:03 090 0 gusting 1 9.4
2014-Dec-17 17:53 315 0 gusting 1 9.4
2014-Dec-17 17:43 315 0 gusting 2 8.9
2014-Dec-17 17:33 015 1 gusting 2 8.9
2014-Dec-17 17:23 158 0 gusting 2 9.4
2014-Dec-17 17:13 090 1 gusting 2 9.4
2014-Dec-17 17:03 102 1 gusting 2 9.4
2014-Dec-17 16:53 090 0 gusting 2 8.9
2014-Dec-17 16:43 098 0 gusting 2 9.4
2014-Dec-17 16:33 262 10.6
2014-Dec-17 16:23 045 10.6
2014-Dec-17 16:13 135 0 gusting 4 10.6
2014-Dec-17 16:03 075 2 gusting 5 11.1
2014-Dec-17 15:53 046 1 gusting 5 11.1
2014-Dec-17 15:43 090 1 gusting 5 11.7
2014-Dec-17 15:33 090 1 gusting 4 11.7
2014-Dec-17 15:23 090 2 gusting 2 12.2
2014-Dec-17 15:13 090 0 gusting 2 13.3
2014-Dec-17 15:03 315 13.9
2014-Dec-17 14:53 347 14.4
2014-Dec-17 14:43 273 15.0
2014-Dec-17 14:33 275 15.0
2014-Dec-17 14:23 277 0 gusting 2 15.6
2014-Dec-17 14:13 345 1 gusting 2 15.6
2014-Dec-17 14:03 265 0 gusting 5 15.6
2014-Dec-17 13:53 341 1 gusting 4 16.1
2014-Dec-17 13:43 250 0 gusting 2 16.1
2014-Dec-17 13:33 135 0 gusting 5 15.6
2014-Dec-17 13:23 122 2 gusting 5 15.0
2014-Dec-17 13:13 080 3 gusting 6 14.4
2014-Dec-17 13:03 009 4 gusting 6 13.3
2014-Dec-17 12:53 038 2 gusting 6 12.8
2014-Dec-17 12:43 086 4 gusting 6 12.8
2014-Dec-17 12:33 337 2 gusting 8 12.8
2014-Dec-17 12:23 055 2 gusting 5 12.8
2014-Dec-17 12:13 069 2 gusting 7 13.3
2014-Dec-17 12:03 279 4 gusting 7 13.3
2014-Dec-17 11:53 128 1 gusting 6 13.9
2014-Dec-17 11:43 14.4
2014-Dec-17 11:33 028 4 gusting 8 14.4
2014-Dec-17 11:23 315 2 gusting 5 15.6
2014-Dec-17 11:13 331 0 gusting 5 16.7
2014-Dec-17 11:03 189 1 gusting 2 17.8
2014-Dec-17 10:53 216 1 gusting 5 17.2
2014-Dec-17 10:43 153 3 gusting 5 17.2
2014-Dec-17 10:33 300 1 gusting 5 16.7
2014-Dec-17 10:23 216 1 gusting 6 16.1
2014-Dec-17 10:13 257 2 gusting 5 16.1
2014-Dec-17 10:03 180 2 gusting 6 16.1
2014-Dec-17 09:53 225 0 gusting 4 16.1
2014-Dec-17 09:43 258 0 gusting 2 15.6
2014-Dec-17 09:33 189 0 gusting 2 14.4
2014-Dec-17 09:23 202 1 gusting 5 14.4
2014-Dec-17 09:13 226 1 gusting 5 13.9
2014-Dec-17 09:03 227 1 gusting 5 13.9
2014-Dec-17 08:53 220 1 gusting 5 13.3
2014-Dec-17 08:43 181 1 gusting 4 12.8
2014-Dec-17 08:33 288 1 gusting 5 12.8
2014-Dec-17 08:23 197 1 gusting 5 12.2
2014-Dec-17 08:13 195 1 gusting 5 12.2
2014-Dec-17 08:03 225 1 gusting 5 11.7
2014-Dec-17 07:53 135 1 gusting 4 11.7
2014-Dec-17 07:43 231 1 gusting 4 11.7
2014-Dec-17 07:33 233 0 gusting 4 11.1
2014-Dec-17 07:23 230 1 gusting 5 10.6
2014-Dec-17 07:13 142 0 gusting 2 10.6
2014-Dec-17 07:03 203 0 gusting 4 9.4
2014-Dec-17 06:53 236 9.4
2014-Dec-16 23:23 225 10.6
2014-Dec-16 23:13 225 1 gusting 5 10.6
2014-Dec-16 23:03 225 1 gusting 6 10.6
2014-Dec-16 22:53 238 2 gusting 6 10.6
2014-Dec-16 22:43 237 0 gusting 2 10.6
2014-Dec-16 22:33 144 0 gusting 6 10.6
2014-Dec-16 22:23 244 3 gusting 7 10.6
2014-Dec-16 22:13 248 1 gusting 6 10.6
2014-Dec-16 22:03 225 0 gusting 5 10.6
2014-Dec-16 21:53 198 1 gusting 5 10.6
2014-Dec-16 21:43 268 2 gusting 6 10.6
2014-Dec-16 21:33 225 1 gusting 4 10.6
2014-Dec-16 21:23 189 1 gusting 4 10.6
2014-Dec-16 21:13 225 0 gusting 5 10.6
2014-Dec-16 21:03 221 0 gusting 5 10.6
2014-Dec-16 20:53 260 0 gusting 6 10.6
2014-Dec-16 20:43 191 1 gusting 5 10.6
2014-Dec-16 20:33 201 1 gusting 5 11.1
2014-Dec-16 20:23 254 2 gusting 5 11.1
2014-Dec-16 20:13 252 1 gusting 5 11.1
2014-Dec-16 20:03 143 2 gusting 6 11.7
2014-Dec-16 19:53 208 2 gusting 6 11.7
2014-Dec-16 19:43 215 1 gusting 5 12.2
2014-Dec-16 19:33 306 0 gusting 2 12.2
2014-Dec-16 19:23 225 0 gusting 2 12.2
2014-Dec-16 19:13 241 0 gusting 2 12.2
2014-Dec-16 19:03 225 0 gusting 2 12.8
2014-Dec-16 18:53 259 0 gusting 4 12.8
2014-Dec-15 21:03 090 0 gusting 1 7.2